| time (UTC) | temp F | wind direction | speed MPH | gust MPH | rain 1hr in | rain 24hr in | rain mn in | humidity % | barometer mb |
| 20260504081527 | 56 | 49 | 0.0 | 0.0 | 0.00 | 0.00 | 0.00 | 74 | 1014.0 |
| 20260504050025 | 54 | 37 | 0.0 | 0.0 | 0.00 | 0.00 | 0.00 | 77 | 1015.4 |
| 20260504044522 | 54 | 37 | 0.0 | 0.0 | 0.00 | 0.00 | 0.00 | 77 | 1015.5 |
| 20260504043024 | 54 | 37 | 0.0 | 0.0 | 0.00 | 0.00 | 0.00 | 78 | 1015.6 |
| 20260504041510 | 53 | 37 | 0.0 | 0.0 | 0.00 | 0.00 | 0.00 | 77 | 1015.7 |
| 20260504040023 | 54 | 37 | 0.0 | 0.0 | 0.00 | 0.00 | 0.00 | 78 | 1015.9 |
| 20260504034510 | 54 | 37 | 0.0 | 0.0 | 0.00 | 0.00 | 0.00 | 78 | 1015.8 |
| 20260504033019 | 54 | 37 | 0.0 | 0.0 | 0.00 | 0.00 | 0.00 | 75 | 1016.0 |
| 20260504031512 | 55 | 37 | 0.0 | 0.0 | 0.00 | 0.00 | 0.00 | 75 | 1016.0 |
| 20260504030030 | 55 | 37 | 0.0 | 0.0 | 0.00 | 0.00 | 0.00 | 72 | 1016.2 |
| 20260504024511 | 56 | 37 | 0.0 | 0.0 | 0.00 | 0.00 | 0.00 | 71 | 1016.1 |
| 20260504023022 | 57 | 37 | 0.0 | 0.0 | 0.00 | 0.00 | 0.00 | 68 | 1016.1 |
| 20260504021509 | 58 | 37 | 0.0 | 0.0 | 0.00 | 0.00 | 0.00 | 68 | 1016.1 |
| 20260504020020 | 59 | 37 | 0.0 | 0.0 | 0.00 | 0.00 | 0.00 | 63 | 1016.1 |
| 20260504014509 | 60 | 37 | 0.0 | 0.0 | 0.00 | 0.00 | 0.00 | 62 | 1015.8 |
| 20260504013019 | 61 | 37 | 0.0 | 0.0 | 0.00 | 0.00 | 0.00 | 60 | 1015.8 |
| 20260504011511 | 62 | 37 | 0.0 | 0.0 | 0.00 | 0.00 | 0.00 | 58 | 1015.6 |
| 20260504010021 | 63 | 37 | 0.0 | 0.0 | 0.00 | 0.00 | 0.00 | 57 | 1015.5 |
| 20260504004520 | 64 | 37 | 0.0 | 0.0 | 0.00 | 0.00 | 0.00 | 53 | 1015.7 |
| 20260504003022 | 65 | 37 | 0.0 | 0.0 | 0.00 | 0.00 | 0.00 | 51 | 1015.8 |
| 20260504001514 | 66 | 37 | 0.0 | 0.0 | 0.00 | 0.00 | 0.00 | 51 | 1015.9 |
| 20260504000021 | 66 | 37 | 0.0 | 0.0 | 0.00 | 0.00 | 0.00 | 51 | 1016.2 |
| 20260503234525 | 67 | 37 | 0.0 | 1.0 | 0.00 | 0.00 | 0.00 | 50 | 1016.2 |
| 20260503233021 | 67 | 38 | 0.0 | 0.0 | 0.00 | 0.00 | 0.00 | 50 | 1016.5 |
| 20260503231511 | 68 | 84 | 0.0 | 1.0 | 0.00 | 0.00 | 0.00 | 46 | 1016.6 |
| 20260503230006 | 68 | 84 | 0.0 | 1.0 | 0.00 | 0.00 | 0.00 | 47 | 1016.7 |
| 20260503224517 | 69 | 149 | 0.0 | 1.0 | 0.00 | 0.00 | 0.00 | 45 | 1016.8 |
| 20260503223007 | 70 | 90 | 0.0 | 1.0 | 0.00 | 0.00 | 0.00 | 47 | 1016.8 |
| 20260503221519 | 71 | 105 | 0.0 | 2.0 | 0.00 | 0.00 | 0.00 | 43 | 1017.1 |
| 20260503220020 | 71 | 80 | 0.0 | 4.0 | 0.00 | 0.00 | 0.00 | 43 | 1017.4 |
| 20260503214517 | 72 | 360 | 0.0 | 4.0 | 0.00 | 0.00 | 0.00 | 41 | 1017.6 |
| 20260503213011 | 72 | 334 | 0.0 | 3.0 | 0.00 | 0.00 | 0.00 | 47 | 1017.9 |
| 20260503211520 | 73 | 49 | 0.0 | 2.0 | 0.00 | 0.00 | 0.00 | 44 | 1018.2 |
| 20260503210011 | 72 | 5 | 0.0 | 3.0 | 0.00 | 0.00 | 0.00 | 43 | 1018.4 |
| 20260503204518 | 72 | 44 | 0.0 | 4.0 | 0.00 | 0.00 | 0.00 | 40 | 1018.7 |
| 20260503203020 | 71 | 278 | 0.0 | 3.0 | 0.00 | 0.00 | 0.00 | 44 | 1019.1 |
| 20260503201528 | 71 | 315 | 0.0 | 3.0 | 0.00 | 0.00 | 0.00 | 45 | 1019.4 |
| 20260503200025 | 72 | 36 | 0.0 | 3.0 | 0.00 | 0.00 | 0.00 | 41 | 1019.9 |
| 20260503194524 | 71 | 115 | 0.0 | 4.0 | 0.00 | 0.00 | 0.00 | 45 | 1020.2 |
| 20260503193021 | 71 | 55 | 0.0 | 5.0 | 0.00 | 0.00 | 0.00 | 40 | 1020.4 |
| 20260503191521 | 72 | 73 | 0.0 | 2.0 | 0.00 | 0.00 | 0.00 | 42 | 1020.7 |
| 20260503190017 | 71 | 148 | 0.0 | 1.0 | 0.00 | 0.00 | 0.00 | 42 | 1020.9 |
| 20260503184516 | 71 | 269 | 0.0 | 8.0 | 0.00 | 0.00 | 0.00 | 45 | 1021.0 |
| 20260503183012 | 70 | 142 | 0.0 | 1.0 | 0.00 | 0.00 | 0.00 | 47 | 1021.3 |
| 20260503181510 | 70 | 67 | 0.0 | 2.0 | 0.00 | 0.00 | 0.00 | 43 | 1021.4 |
| 20260503180016 | 70 | 168 | 0.0 | 2.0 | 0.00 | 0.00 | 0.00 | 48 | 1021.7 |
| 20260503174506 | 69 | 38 | 0.0 | 2.0 | 0.00 | 0.00 | 0.00 | 42 | 1021.9 |
| 20260503173003 | 70 | 165 | 0.0 | 3.0 | 0.00 | 0.00 | 0.00 | 50 | 1022.1 |
| 20260503171501 | 69 | 48 | 0.0 | 2.0 | 0.00 | 0.00 | 0.00 | 43 | 1022.4 |